This demonstration page uses our WeatherBlox Daily Observations layout. Learn more.

Left ArrowRight Arrow

39.01783, -85.05884

Hourly Observations for August 27, 2015

Temp ( °F °C ) Dew Point ( °F °C ) Humidity (%) Winds ( mph kmh ) Pressure ( in mb ) Visibility ( mi km ) Precip ( " mm )
12:52 am 00:52 Cloudy 66 18.9 57 13.9 73 73 ESE 5 7 30.12 1020 10 16.0934 N/A
1:52 am 01:52 Cloudy 65 18.3 56 13.3 73 73 ESE 7 11 30.13 1020 10 16.0934 N/A
2:52 am 02:52 Cloudy 64 17.8 57 13.9 78 78 ESE 5 7 30.13 1020 10 16.0934 N/A
3:52 am 03:52 Cloudy 64 17.8 56 13.3 75 75 ESE 5 7 30.12 1020 10 16.0934 N/A
4:52 am 04:52 Mostly Cloudy 64 17.8 56 13.3 75 75 N N/A 30.13 1020 10 16.0934 N/A
5:52 am 05:52 Mostly Cloudy 62 16.7 56 13.3 80 80 N N/A 30.13 1020 10 16.0934 N/A
6:52 am 06:52 Mostly Cloudy 63 17.2 56 13.3 78 78 N N/A 30.14 1021 10 16.0934 N/A
7:52 am 07:52 Cloudy 62 16.7 57 13.9 84 84 N N/A 30.15 1021 10 16.0934 N/A
8:52 am 08:52 Mostly Cloudy 65 18.3 57 13.9 76 76 N N/A 30.16 1021 10 16.0934 N/A
9:52 am 09:52 Cloudy 68 20 58 14.4 70 70 N N/A 30.17 1022 10 16.0934 N/A
10:52 am 10:52 Mostly Cloudy 71 21.7 57 13.9 61 61 SE 5 7 30.18 1022 10 16.0934 N/A
11:52 am 11:52 Mostly Cloudy 71 21.7 57 13.9 61 61 NNW 8 13 30.18 1022 10 16.0934 N/A
12:52 pm 12:52 Mostly Cloudy 72 22.2 57 13.9 59 59 NNE 3 6 30.17 1022 10 16.0934 N/A
1:52 pm 13:52 Mostly Cloudy 74 23.3 55 12.8 52 52 ENE 9 15 30.14 1021 10 16.0934 N/A
2:52 pm 14:52 Cloudy 74 23.3 55 12.8 52 52 VRB 6 9 30.13 1020 10 16.0934 N/A
3:52 pm 15:52 Mostly Cloudy 74 23.3 54 12.2 50 50 ENE 9 15 30.12 1020 10 16.0934 N/A
4:52 pm 16:52 Cloudy 75 23.9 54 12.2 48 48 NE 3 6 30.12 1020 10 16.0934 N/A
5:52 pm 17:52 Mostly Cloudy 74 23.3 55 12.8 52 52 NNW 5 7 30.12 1020 10 16.0934 N/A
6:52 pm 18:52 Partly Cloudy 75 23.9 54 12.2 48 48 ENE 6 9 30.11 1020 10 16.0934 N/A
7:52 pm 19:52 Mostly Sunny 73 22.8 53 11.7 50 50 NE 3 6 30.12 1020 10 16.0934 N/A
8:52 pm 20:52 Partly Cloudy 69 20.6 55 12.8 61 61 N N/A 30.12 1020 10 16.0934 N/A
9:52 pm 21:52 Clear 64 17.8 56 13.3 75 75 N N/A 30.14 1021 10 16.0934 N/A
10:52 pm 22:52 Clear 61 16.1 56 13.3 84 84 N N/A 30.14 1021 10 16.0934 N/A
11:52 pm 23:52 Mostly Clear 63 17.2 56 13.3 78 78 SE 3 6 30.12 1020 10 16.0934 N/A

Powered by AerisWeather